User: anonymous   Login
Location: Unspecified
(0.0000°N, 0.0000°E)
Time: 19:45:25
(UTC+00:00)
Language:

UME 2 Rocket - Orbit

View from above orbital plane
View from above orbital plane
View from above satellite
View from above satellite

Ground track
Ground track

The orbit data is extracted from the following two-line orbital elements,

1 10674U 78018A   17268.90852720 -.00000030  00000-0  33700-4 0  9990
2 10674  69.3625 195.5145 0165760 326.4622  99.3654 13.43604380942914
Epoch (UTC): 25 September 2017 21:48:16
Eccentricity: 0.0165760
inclination: 69.3625°
perigee height: 972 km
apogee height: 1220 km
right ascension of ascending node: 195.5145°
argument of perigee: 326.4622°
revolutions per day: 13.43604380
mean anomaly at epoch: 99.3654°
orbit number at epoch: 94291

The dashed part of the orbit path shows where the satellite is in the earth's shadow,  

DLR